Location: Ballydurn
(52.2483°N, 7.3975°W)
Time: 06:27:43
(UTC+00:00)

Daily predictions for brighter satellites

Satellite Brightness Start Highest point End
(mag) Time Altitude Azimuth Time Altitude Azimuth Time Altitude Azimuth
Terra 3.8 20:29:32 10° E 20:32:12 15° NE 20:34:53 10° NNE
ATLAS 3B R/B 4.1 20:29:13 10° SE 20:32:22 14° ESE 20:35:30 10° ENE
Cosmos 1238 Rocket 3.6 20:31:30 10° SE 20:33:45 20° E 20:36:06 10° NE
Cosmos 468 Rocket 4.2 20:28:34 10° NNW 20:33:52 60° ENE 20:39:04 10° SE
Cosmos 1980 Rocket 2.8 20:29:35 10° NW 20:35:10 59° WSW 20:40:41 10° SSE
CZ-2C R/B 4.0 20:30:47 10° NNE 20:35:15 47° E 20:39:35 10° S
Cosmos 44 3.6 20:30:30 10° NW 20:35:18 59° NE 20:40:20 10° ESE
Lacrosse 5 2.1 20:31:29 10° WNW 20:36:31 64° SW 20:41:32 10° SE
USA 234 3.6 20:30:52 10° E 20:37:20 65° NNE 20:43:49 10° WNW
Cosmos 1934 Rocket 4.1 20:31:45 10° S 20:38:02 64° E 20:44:18 10° NNE
Resurs 01 Rocket 1.7 20:36:24 10° SSE 20:40:48 69° ENE 20:45:13 10° N
GP-B 3.6 20:39:02 10° NNE 20:43:17 42° E 20:47:31 10° SSE
Cosmos 1833 Rocket 3.3 20:41:10 10° SW 20:46:45 64° NW 20:52:22 10° NNE
Cosmos 1933 Rocket 4.2 20:44:40 10° SSE 20:48:42 36° E 20:52:47 10° NNE
SPOT 3 Rocket 3.7 20:43:36 10° SSE 20:48:48 78° WSW 20:54:01 10° NNW
Cosmos 1666 Rocket 3.6 20:44:46 10° SSW 20:49:06 84° WNW 20:53:30 10° N
Cosmos 1867 3.6 20:45:41 10° SW 20:51:07 86° SE 20:56:38 10° NE
COSMOS 2428 4.5 20:47:36 10° NNW 20:51:58 22° NNE 20:56:19 10° E
DMSP B5D2-2 4.2 20:48:31 10° NNE 20:53:47 82° WNW 20:59:02 10° SSW
Cosmos 405 Rocket 3.2 20:51:28 10° SSE 20:54:55 38° E 20:58:28 10° NNE
Cosmos 1954 Rocket 4.0 20:49:53 10° SSW 20:55:12 79° ESE 21:00:33 10° NNE
Cosmos 2237 Rocket 4.5 20:52:36 10° NNW 20:55:43 15° NNE 20:58:50 10° NE
USA 238 DEB 3.7 20:49:31 10° SSW 20:56:04 65° SE 21:02:55 10° NE
USA 238 3.7 20:49:37 10° SSW 20:56:10 64° SE 21:03:02 10° NE
Spot 2 Rocket 3.8 20:51:25 10° SE 20:56:21 52° ENE 21:01:18 10° N
Cosmos 1515 4.4 20:52:53 10° N 20:56:29 38° ENE 20:59:36 13° SE
Meteor 1-20 Rocket 4.4 20:51:54 10° S 20:57:38 60° E 21:03:23 10° NNE
Okean 1-7 3.6 20:54:13 10° N 20:58:18 40° ENE 21:01:52 13° SE
CENTAUR R/B 2.8 20:53:48 10° SSW 20:59:28 45° ESE 21:06:09 10° NE
Cosmos 1741 Rocket 4.5 20:58:23 10° S 21:03:15 40° ESE 21:08:11 10° NE
Cosmos 1437 Rocket 3.0 21:00:32 10° N 21:04:15 50° ENE 21:07:19 14° SSE
FALCON 9 DEB 3.1 21:01:51 10° WSW 21:05:22 88° NNW 21:08:53 10° E
OBJECT-B 2.5 21:05:06 10° SSW 21:08:07 33° W 21:11:10 10° NNW
Cosmos 1763 Rocket 3.6 21:02:49 10° NNW 21:08:12 88° WSW 21:13:14 11° SSE
Cosmos 1703 Rocket 3.7 21:04:25 10° N 21:08:42 55° ENE 21:12:20 14° SSE
H-2A R/B 3.7 21:06:03 10° NNE 21:10:03 46° E 21:14:03 10° S
Cosmos 2333 Rocket 3.6 21:05:22 10° NNW 21:10:21 29° NE 21:15:18 10° E
Cosmos 1570 Rocket 4.3 21:05:19 10° NNW 21:10:36 60° ENE 21:14:58 15° SE
ATLAS 5 CENTAUR R/B 2.3 21:09:05 10° NW 21:11:14 37° NE 21:14:58 12° ESE
Cosmos 1140 Rocket 4.4 21:06:23 10° SW 21:11:31 55° WNW 21:16:42 10° NNE
Cosmos 1184 Rocket 3.3 21:09:19 10° SSW 21:12:35 64° WNW 21:15:53 10° N
Cosmos 2084 Rocket 3.8 21:09:29 10° SSW 21:13:27 41° SE 21:17:30 10° ENE
Cosmos 1633 Rocket 3.8 21:11:37 10° SSW 21:15:58 57° WNW 21:20:19 10° N
Cosmos 921 Rocket 4.0 21:13:12 10° NW 21:17:11 42° WSW 21:21:07 10° S
Landsat 7 3.8 21:15:20 12° SSE 21:19:40 78° ENE 21:24:27 10° NNW
SPOT 5 3.4 21:17:39 17° SE 21:20:35 39° ENE 21:24:46 10° N
USA 245 4.5 21:14:58 10° SSE 21:21:23 83° ENE 21:27:14 10° NNW
Cosmos 2208 Rocket 4.2 21:16:53 10° NNW 21:22:08 61° ENE 21:25:58 18° SE
ERBS 3.5 21:24:07 10° WNW 21:27:16 38° N 21:30:13 11° E
MetOp-B 4.3 21:22:25 10° S 21:27:46 73° WSW 21:33:10 10° NNW
Okean 1 3.5 21:24:06 10° NNW 21:28:10 73° W 21:31:49 12° S
Meteor 1-19 Rocket 4.2 21:26:52 10° NNW 21:32:19 81° W 21:37:21 13° S
CZ-2C R/B 4.0 21:29:02 10° N 21:33:51 40° WNW 21:38:41 10° SW
Lacrosse 4 Rocket 3.0 21:37:38 17° E 21:37:38 17° E 21:39:53 10° ENE
Cosmos 1605 Rocket 4.1 21:32:23 10° SSW 21:38:29 77° W 21:44:37 10° N
Cosmos 2219 Rocket 3.2 21:35:09 10° NNW 21:40:25 36° NE 21:44:23 16° ESE
SL-4 R/B 1.7 21:36:33 10° W 21:40:29 83° S 21:42:58 20° E
Meteor 2-4 Rocket 3.7 21:35:03 10° N 21:40:42 77° ENE 21:44:40 19° SSE
SL-27 R/B 2.2 21:37:55 12° SSW 21:40:52 65° ESE 21:44:09 10° NNE
Cosmos 540 Rocket 3.5 21:35:42 10° NNW 21:40:55 89° WSW 21:44:28 21° SSE
Cosmos 2100 Rocket 4.2 21:36:57 15° SSE 21:41:51 52° E 21:47:48 10° NNE
Cosmos 2242 Rocket 4.2 21:38:16 10° NNW 21:42:36 55° W 21:46:38 12° S
USA 267 3.6 21:36:43 10° ENE 21:42:47 39° SE 21:48:50 10° SSW
SL-16 R/B 2.7 21:38:22 10° NW 21:43:55 56° WSW 21:48:20 16° S
Cosmos 2173 Rocket 4.2 21:41:11 17° SSE 21:45:50 52° E 21:51:44 10° NNE
Cosmos 1470 Rocket 4.5 21:41:36 10° SSW 21:45:52 50° WNW 21:50:09 10° N
NOSS 3-2 (A) 3.7 21:40:18 10° SW 21:46:11 75° NW 21:53:03 10° NE
Cosmos 1242 Rocket 3.9 21:46:40 10° N 21:49:49 26° ENE 21:50:53 23° E
SAR-Lupe-2 4.1 21:49:45 10° NNE 21:53:10 40° E 21:54:05 33° SE
Cosmos 2322 4.1 21:48:27 10° NNW 21:54:02 55° NE 21:57:25 23° ESE
Cosmos 2082 Rocket 3.8 21:50:28 10° WSW 21:55:45 38° NW 22:01:02 10° NNE
NOSS 3-2 (C) 3.5 21:50:57 10° SW 21:56:49 90° NW 22:03:40 10° NE
Cosmos 1459 Rocket 4.1 21:53:46 17° S 21:58:41 64° E 22:05:00 10° NNE
ERS-1 Rocket 3.0 21:56:14 23° SSE 21:59:29 86° WSW 22:04:33 10° NNW
Meteor 1-13 Rocket 4.2 21:54:41 10° N 22:00:14 70° ENE 22:03:23 26° SSE
Cosmos 2322 Rocket 2.8 21:55:39 10° NW 22:01:09 51° WSW 22:05:04 19° S
Cosmos 1500 3.0 22:00:28 29° S 22:02:16 74° E 22:06:03 10° NNE
USA 276 3.9 22:00:12 10° WSW 22:02:32 19° SSW 22:02:32 19° SSW
Meteor 1-14 Rocket 4.5 21:57:16 10° SSW 22:03:11 79° WNW 22:09:13 10° NNE
X-37B 3.2 22:02:21 10° SW 22:02:37 10° SW 22:02:37 10° SW
Cosmos 2221 Rocket 3.7 21:59:10 10° N 22:03:38 62° ENE 22:05:36 32° SE
Cosmos 1536 3.7 22:03:04 29° ESE 22:03:40 31° E 22:07:12 10° NNE
Cosmos 2016 Rocket 4.3 22:02:20 24° SSE 22:06:06 52° E 22:12:15 10° NNE
Cosmos 1850 Rocket 4.3 22:00:56 10° SSW 22:06:12 70° WNW 22:11:28 10° NNE
Okean 3 3.4 22:02:23 10° N 22:06:43 80° E 22:08:39 32° SSE
Cosmos 841 Rocket 3.9 22:01:37 10° NNW 22:06:45 57° WSW 22:10:01 22° S
SPOT 1/Viking Rocket 4.1 22:04:10 16° S 22:08:10 54° W 22:13:20 10° NNW
Cosmos 2333 4.4 22:03:12 10° NNW 22:09:00 68° NE 22:12:06 28° SE
Terra 1.8 22:06:49 30° SSE 22:09:13 78° ENE 22:14:00 10° NNW
Cosmos 2360 Rocket 2.3 22:04:45 10° NNW 22:10:26 74° WSW 22:13:33 28° SSE
SL-16 R/B 4.5 22:07:49 10° NNW 22:11:32 17° NNE 22:15:14 10° ENE
COSMOS 2487 3.6 22:12:29 28° E 22:12:29 28° E 22:14:55 10° NE
Cosmos 1666 3.0 22:12:27 40° ESE 22:13:03 44° E 22:16:40 10° NNE
Cosmos 2237 4.4 22:09:11 10° NW 22:14:50 64° WSW 22:17:58 27° S
Resurs 01 Rocket 4.1 22:14:50 10° SW 22:17:46 17° W 22:20:42 10° NW
Lacrosse 5 3.9 22:15:28 10° W 22:18:42 17° SW 22:21:01 13° SSW
CARTOSAT-1 4.1 22:17:38 25° SSW 22:19:56 54° W 22:24:12 10° NNW
Iridium 4 Rocket 2.9 22:18:30 36° S 22:20:10 79° E 22:24:21 10° N
USA 234 3.2 22:16:20 26° SE 22:20:21 75° SSW 22:26:55 10° WNW
Cosmos 1378 4.1 22:17:20 10° N 22:20:44 31° ENE 22:21:16 30° E
ATLAS 3B R/B 2.6 22:15:15 10° SSW 22:21:42 60° SE 22:28:15 10° NE
Cosmos 1743 4.0 22:35:21 27° E 22:35:21 27° E 22:38:26 10° NNE
Cosmos 2233 Rocket 4.4 22:34:08 32° SE 22:36:37 48° E 22:42:39 10° NNE
COSMOS 2428 2.8 22:31:33 10° NNW 22:37:19 70° NE 22:39:48 35° SE
Cosmos 1869 Rocket 4.3 22:34:51 17° SSW 22:38:06 51° WNW 22:42:29 10° N
Cosmos 2061 Rocket 3.9 22:35:41 27° S 22:39:21 84° E 22:45:35 10° NNE
Cosmos 44 Rocket 3.3 22:36:11 10° NW 22:41:11 87° NE 22:42:57 42° SE
Cosmos 2237 Rocket 3.2 22:36:14 10° NNW 22:41:30 38° NE 22:44:34 22° E
FALCON 9 DEB 3.1 22:38:58 10° W 22:42:29 84° N 22:42:51 70° E
Cosmos 1271 Rocket 3.0 22:40:26 10° N 22:44:09 50° ENE 22:44:31 48° E
Cosmos 1802 Rocket 4.1 22:39:45 21° SSW 22:44:16 79° WNW 22:50:37 10° N
NOSS 0 Rocket 4.3 22:42:36 10° NNW 22:48:48 59° NE 22:51:50 30° ESE
CENTAUR R/B 3.2 22:43:46 10° WSW 22:50:01 60° NNW 22:57:28 10° NE
Cosmos 1674 Rocket 3.4 22:45:42 10° N 22:50:04 84° ENE 22:51:00 55° SSE
Cosmos 2333 Rocket 2.2 22:49:27 10° NNW 22:55:15 79° WSW 22:57:19 42° SSE
SPOT 5 4.1 22:56:53 21° SW 22:58:48 29° W 23:02:42 10° NNW
Geosat 4.2 22:58:12 39° ESE 22:59:57 64° NE 23:04:57 10° NNW
Cosmos 1066 Rocket 4.3 22:55:40 10° NNW 23:01:19 69° W 23:03:26 38° S
ERBS 2.7 23:00:26 10° WNW 23:03:07 54° WNW 23:03:07 54° WNW
Cosmos 1486 Rocket 3.9 23:02:24 46° S 23:03:51 69° ESE 23:09:03 10° NNE
Cosmos 1356 4.3 23:04:01 39° WSW 23:04:38 44° WNW 23:07:57 10° N
Cosmos 1733 Rocket 3.2 23:06:45 47° SSW 23:07:56 72° WNW 23:12:24 10° N
CRYOSAT 2 4.3 23:03:15 10° N 23:08:11 88° E 23:09:29 50° S
Lacrosse 4 Rocket 1.5 23:13:52 40° SW 23:15:18 73° NW 23:19:29 10° NNE
Cosmos 773 Rocket 4.3 23:11:08 10° NNW 23:16:12 55° ENE 23:17:39 41° ESE
ALOS 2 3.0 23:17:00 45° E 23:17:39 48° ENE 23:21:53 10° N
Meteor 1-11 Rocket 4.3 23:14:14 23° SW 23:17:43 57° WNW 23:23:29 10° N
Cosmos 968 Rocket 3.3 23:17:23 51° S 23:18:39 78° ESE 23:23:49 10° NNE
SL-4 R/B 3.0 23:16:17 10° W 23:18:32 31° WSW 23:18:32 31° WSW
Tsikada Rocket 4.4 23:14:39 10° NNW 23:20:49 55° W 23:23:35 32° SSW
Cosmos 1707 4.3 23:18:18 10° NNE 23:21:35 25° ENE 23:21:46 25° ENE
Cosmos 2227 Rocket 3.8 23:22:00 18° E 23:22:00 18° E 23:25:31 10° ENE
Cosmos 2219 Rocket 2.5 23:19:05 10° NW 23:24:39 55° WSW 23:26:05 43° SSW
Cosmos 1242 Rocket 4.0 23:21:29 10° NNW 23:24:40 29° W 23:24:54 28° W
USA 267 3.2 23:19:41 10° ENE 23:26:16 90° N 23:32:51 10° WSW
EO 1 Del DPAF 3.9 23:25:08 10° NNE 23:28:12 45° ENE 23:28:12 45° ENE
Cosmos 1538 Rocket 4.5 23:29:03 10° NNW 23:34:08 51° ENE 23:35:35 39° ESE
Cosmos 1782 Rocket 3.8 23:35:17 52° E 23:35:17 52° E 23:39:24 10° NNE
Cosmos 1842 3.2 23:33:22 10° N 23:37:09 79° NNE 23:37:09 79° NNE
Spot 4 4.0 23:37:26 55° SSW 23:38:13 64° WSW 23:43:04 10° NNW
Cosmos 1536 4.4 23:38:46 23° WSW 23:40:05 29° WNW 23:43:36 10° N
Cosmos 1378 Rocket 4.4 23:37:07 10° NNW 23:41:17 41° W 23:41:55 38° WSW
Cosmos 1908 Rocket 3.4 23:41:58 74° SW 23:42:17 80° W 23:46:40 10° N
Cosmos 1607 4.3 23:37:47 10° NW 23:44:13 66° NE 23:47:26 31° ESE
COSMOS 2487 4.3 23:45:55 22° W 23:46:54 25° NW 23:49:51 10° N
Terra 3.9 23:45:43 14° WSW 23:47:33 17° W 23:50:37 10° NW
Cosmos 2360 Rocket 4.3 23:50:32 10° WNW 23:53:27 14° W 23:55:19 12° WSW
